Regional Weather Roundup
Issued by NWS Wilmington, NC

Home | Current Version | Previous Version | Text Only | Print | Product List | Glossary On
Versions: 1 2 3 4 5 6 7 8 9 10 11 12 13 14 15 16 17 18 19 20 21 22 23 24 25 26 27
000
ASUS42 KILM 240812
RWRILM
RWRILM
REGIONAL HOURLY WEATHER ROUNDUP
NATIONAL WEATHER SERVICE WILMINGTON NC
400 AM EDT WED AUG 24 2016

NOTE: "FAIR" INDICATES FEW OR NO CLOUDS BELOW 12,000 FEET WITH NO
SIGNIFICANT WEATHER AND/OR OBSTRUCTIONS TO VISIBILITY.

...............WFO WILMINGTON COUNTY WARNING AREA...............

......COASTAL NC AND SC COUNTIES......

CITY           SKY/WX    TMP DP  RH WIND       PRES   REMARKS
WILMINGTON     CLEAR     68  63  84 NE5       30.23F
N MYRTLE BEACH CLEAR     71  66  84 NE5       30.22S
MYRTLE BEACH   PTCLDY    81  63  54 E7        30.24S

......INLAND NC AND SC COUNTIES.......

CITY           SKY/WX    TMP DP  RH WIND       PRES   REMARKS
LUMBERTON      CLEAR     71  64  78 E3        30.24F
ELIZABETHTOWN  CLEAR     68  66  93 CALM      30.25S
WHITEVILLE     CLEAR     69  65  87 NE3       30.24S
FLORENCE       PTCLDY    71  66  84 NE3       30.25R
DARLINGTON     CLEAR     68  67  96 CALM      30.25S
KINGSTREE      FAIR      64  63  94 CALM      30.23S
HARTSVILLE     MOCLDY    70  64  83 CALM      30.25S
BENNETTSVILLE  FAIR      68  68 100 CALM      30.24F
CONWAY         FAIR      66  64  94 CALM      30.23F
GEORGETOWN     FAIR      73  68  83 NE3       30.22F
MARION         FAIR      68  64  88 NE3       30.24S

....................REST OF NORTH CAROLINA......................

.........EASTERN NC.........

CITY           SKY/WX    TMP DP  RH WIND       PRES   REMARKS
CAPE HATTERAS  CLEAR     73  64  73 NE5       30.23F
JACKSONVILLE   CLEAR     64  63  96 CALM      30.25F
MOREHEAD CITY  CLEAR     67  62  84 N3        30.23F
KENANSVILLE    NOT AVBL
NEW BERN       CLEAR     66  62  87 CALM      30.26F
ELIZABETH CITY CLEAR     61  59  93 W3        30.26F

.........CENTRAL NC.........

CITY           SKY/WX    TMP DP  RH WIND       PRES   REMARKS
RALEIGH DURHAM PTCLDY    69  61  75 SE3       30.28S
ROCKY MOUNT    PTCLDY    62  62 100 CALM      30.28S
ROANOKE RAPIDS NOT AVBL
FAYETTEVILLE   CLEAR     68  64  87 NE5       30.26S
HOFFMAN        CLEAR     69  65  87 SE2       30.26S

.........WESTERN NC.........

CITY           SKY/WX    TMP DP  RH WIND       PRES   REMARKS
CHARLOTTE      PTCLDY    71  64  78 S3        30.26F
GREENSBORO     CLEAR     68  64  87 SE5       30.28S
HICKORY        NOT AVBL
BOONE          NOT AVBL
ASHEVILLE      NOT AVBL

.....................REST OF SOUTH CAROLINA.....................

.........EASTERN SC.........

CITY           SKY/WX    TMP DP  RH WIND       PRES   REMARKS
CHARLESTON     PTCLDY    72  68  87 N5        30.20F
BEAUFORT MCAS  PTCLDY    74  71  91 N6        30.19F
HILTON HEAD    CLEAR     81  70  69 CALM      30.19F

.........CENTRAL SC.........

CITY           SKY/WX    TMP DP  RH WIND       PRES   REMARKS
COLUMBIA       PTCLDY    74  69  85 CALM      30.23S
ORANGEBURG     CLEAR     70  69  97 CALM      30.22F
SUMTER SHAW    CLEAR     70  67  89 NE5       30.21S

.........WESTERN SC.........

CITY           SKY/WX    TMP DP  RH WIND       PRES   REMARKS
GREENVILLE     NOT AVBL
ROCK HILL      CLEAR     72  66  81 CALM      30.26F
ANDERSON       MOCLDY    74  67  78 CALM      30.24S
CLEMSON        NOT AVBL
GREENWOOD      CLEAR     73  69  87 SE3       30.25S


...................COASTAL AND OFFSHORE REPORTS..................

................LOCAL PIERS AND NC RESERVE................


STATION/POSITION TIME  SKY/WX   TEMP    WIND        PRES    VSBY
                                AIR SEA DIR/SP/G
                 (UTC)          (F)     (DEG/KT/KT) (MB)    (MI)
JOHNY MRCER PIER NOT AVBL
NC RESRV MASNBRO NOT AVBL
OCEAN CREST PIER NOT AVBL
SPRINGMAID  PIER NOT AVBL


................COASTAL AND OFFSHORE BUOYS................


STATION/POSITION TIME  SKY/WX   TEMP    WIND        PRES    VSBY
                                AIR SEA DIR/SP/G
                 (UTC)          (F)     (DEG/KT/KT) (MB)    (MI)
DIMNDSHOAL 41025 NOT AVBL
CAPE LOOKOUT     NOT AVBL
ONSLOW BAY 41036 NOT AVBL
ONSLOW BAY 41064 NOT AVBL
ONSLOW BAY 41159 NOT AVBL
5SE WRITBC 41038 NOT AVBL
MASNBO INL 41110 NOT AVBL
WILM HARBR 41108 NOT AVBL
27SE WRITB 41037 NOT AVBL
FRYING PAN 41013 NOT AVBL
SUNST NRSH 41024 NOT AVBL
CAPRS NRSH 41029 NOT AVBL
EDISTO     41004 NOT AVBL


..........OFFSHORE BUOYS BEYOND 100 NM OFFSHORE...........
.....IN A TRIANGLE---HAT TO BERMUDA TO BAHAMAS TO HAT.....


STATION/POSITION TIME  SKY/WX   TEMP    WIND        PRES    VSBY
                                AIR SEA DIR/SP/G
                 (UTC)          (F)     (DEG/KT/KT) (MB)    (MI)
150E HAT   41001 NOT AVBL
W BERMUDA  41048 NOT AVBL
ATLANTIC S 41049 NOT AVBL
E BAHAMAS  41046 NOT AVBL
NE BAHAMAS 41047 NOT AVBL
120E CANVRL41010 NOT AVBL

END




USA.gov is the U.S. government's official web portal to all federal, state and local government web resources and services.